Location: Lafig�re
(44.4503°N, 4.0357°E)
Time: 15:10:32
(UTC+00:00)

Transit 2A Rocket - Pass Details

Date: 23 January 2021
Orbit: 594 x 908 km, 66.7° (Epoch: 06 March)

Event Time Altitude Azimuth Distance (km) Brightness Sun altitude
Rises 11:36:49 0° 195° (SSW) 3,373 9.5 26.1°
Reaches altitude 10° 11:39:25 10° 190° (S) 2,398 9.2 26.1°
Maximum altitude 11:44:42 50° 116° (ESE) 974 6.2 26.2°
Drops below altitude 10° 11:49:34 10° 42° (NE) 2,208 7.1 26.2°
Sets 11:51:52 0° 37° (NE) 3,082 7.7 26.2°
